CZ-4 DEB, 26134

Orbit data source: Space-Track

CZ-4 DEB, 26134 is space debris in SSO originally from a launch on Thu, 14 Oct 1999 UTC launched from the Taiyaun Space Center, China (TSC). Debris objects in space refer to the collection of defunct objects orbiting the Earth. Examples of debris include non-operational satellites, rocket bodies, and fragments generated from explosions, collisions, or faulty payload assembly.

Loading next visibility...
Identifier
26134, 1999-057W
Orbit
SSO
Country
Flag of CNCN / PRC
Related business
Manufacturer
Unknown
Mission
Spacecraft
Bus & Motor
Unknown
Mass
Unknown
Launch date (UTC)
1999-10-14 (26 years ago)
Launch vehicle
Unknown
Launch site
Taiyaun Space Center, China (TSC)
Object type
Payload
Rocket body
Debris
Shape & HBR
Unknown shape, 0.1 m
Radar Cross Section
Small (<0.1 m²)

Expand to show TLE details & history
Last TLE update: 14 hours ago

TLE from 14 hours ago
0 CZ-4 DEB
1 26134U 99057W   25288.95031955  .00002376  00000-0  16219-2 0  9997
2 26134  98.9483  99.7116 0419531 249.9294 217.9416 13.65436491267742
Epoch: 2025-10-15T22:48Z
TLE epoch observation values (Epoch: 2025-10-15T22:48:27.609Z)
Latitude
72.62366°
Longitude
-57.07561°
Altitude
1,277.818 km
Speed
7.1 km/s
True Right ascension
20h 39m 01s
True Declination
72° 31' 55"
Sunlit
Object was in daylight at epoch
Visualization orbit readout
Latitude
Unknown
Longitude
Unknown
Altitude
Unknown
Speed
Unknown
Apparent Right ascension
Unknown
Apparent Declination
Unknown
Sunlit
N/A
Visualization observer readout
Local Sidereal Time
07:51:58
Azimuth
Unknown
Elevation
Unknown
Doppler factor
Unknown
Orbital elements
Apogee altitude
1,323.327 km
Perigee altitude
703.145 km
Semi-major axis
7,391.373 km
Eccentricity
0.04195
Inclination
98.9483°
RAAN
99.7116°
Arg. of periapsis
249.9294°
True anomaly
215.10441°
Mean anomaly
217.9416°
Eccentric anomaly
216.51142°
Mean motion
3.41551 °/min
Orbital period
105.4 mins
BSTAR
0.0016219
Loading maneuver chart data...
Computing Atmospheric mass density...
Loading historical data...
Loading historical data...
Loading historical data...
Loading historical data...
Loading historical data...
Loading historical data...
Loading historical data...

Documentation

Showing up to 5 results
|